Flag for U.S.A. Weather past 2 weeks in Bismarck, North Dakota, U.S.A.

Now
4 °F

Sunny.


Feels Like: -9 °F
Forecast: -5 / 8 °F
Wind: 8 mph from West

Location: Bismarck Municipal Airport

Current Time: Feb 1, 2015 at 4:17:15 PM

Latest Report: Feb 1, 2015 at 3:52 PM


Visibility: 10 mi

Pressure: 30.54 "Hg

Humidity: 47%

Dew point: -12 °F

Location of BismarckLocation

Historic Weather in Bismarck — Graph

°F

Bismarck temperature yesterday

Maximum temperature yesterday: 24 °F (at 12:52 AM)
Minimum temperature yesterday: -2 °F (at 10:52 PM)
Average temperature yesterday: 13 °F

Past Weeks' High & Low Weather Summary

 TemperatureHumidityPressure
High51 °F (Jan 27, 2:52 PM)100% (Jan 28, 4:52 AM)30.69 "Hg (Jan 28, 4:52 AM)
Low-7 °F (Feb 1, 7:52 AM)39% (Jan 27, 4:52 PM)29.58 "Hg (Jan 24, 3:02 PM)
Average29 °F78%30.08 "Hg
* Reported Jan 17 1:52 PM — Feb 1 1:52 PM, Bismarck, Weather by CustomWeather, © 2014

Note: Actual official high and low records may vary slightly from our data, if they occured in-between our weather recording intervals... More about our weather records

Advertising

Bismarck weather history for previous 24 hours

 ConditionsComfort  
Time TempWeatherWind HumidityBarometerVisibility
1:52 PM
Feb 1
3 °FSunny.5 mph47%30.59 "Hg10 mi
12:52 PM2 °FSunny.6 mph49%30.63 "Hg10 mi
11:52 AM0 °FSunny.5 mph48%30.67 "Hg10 mi
10:52 AM-3 °FSunny.7 mph55%30.68 "Hg10 mi
9:52 AM-6 °FSunny.8 mph55%30.67 "Hg10 mi
8:52 AM-7 °FScattered clouds.10 mph61%30.69 "Hg10 mi
7:52 AM-7 °FPassing clouds.10 mph68%30.66 "Hg10 mi
6:52 AM-6 °FPassing clouds.10 mph64%30.64 "Hg10 mi
5:52 AM-5 °FMostly cloudy.8 mph64%30.63 "Hg10 mi
4:52 AM-5 °FMostly cloudy.13 mph68%30.62 "Hg9 mi
4:01 AM-5 °FLight snow. Overcast.10 mph72%30.47 "Hg4 mi
2:52 AM-5 °FLight snow. Overcast.12 mph75%30.60 "Hg2 mi
1:52 AM-5 °FLight snow. Mostly cloudy.10 mph68%30.59 "Hg7 mi
12:52 AM-4 °FLight snow. Overcast.12 mph71%30.58 "Hg3 mi
12:00 AM-3 °FLight snow. Overcast.12 mphN/A30.43 "Hg1 mi
10:52 PM
Jan 31
-2 °FLight snow. Overcast.14 mphN/A30.55 "Hg2 mi
10:00 PM-1 °FLight snow. Overcast.16 mph75%30.40 "Hg1 mi
8:52 PM0 °FLight snow. Overcast.18 mph79%30.50 "Hg1 mi
7:52 PM2 °FLight snow. Overcast.21 mph76%30.50 "Hg2 mi
6:52 PM4 °FLight snow. Overcast.18 mph76%30.47 "Hg4 mi
5:52 PM7 °FLight snow. Mostly cloudy.17 mph73%30.44 "Hg4 mi
4:52 PM9 °FOvercast.16 mph64%30.41 "Hg10 mi
Weather by CustomWeather, © 2014

See weather overviewHow to use our weather pages